Location: Guayaquil
(2.1667°S, 79.9000°W)
Time: 10:15:41
(UTC-05:00)

Envisat - Pass Details

Date: 14 August 2020
Orbit: 764 x 766 km, 98.1° (Epoch: 23 September)

Event Time Altitude Azimuth Distance (km) Brightness Sun altitude
Rises 18:52:15 0° 191° (S) 3,232 6.2 -7.3°
Reaches altitude 10° 18:54:56 10° 204° (SSW) 2,303 5.6 -8.0°
Maximum altitude 18:58:58 24° 257° (WSW) 1,538 5.5 -9.0°
Drops below altitude 10° 19:03:00 10° 310° (NW) 2,295 6.6 -10.0°
Sets 19:05:42 0° 324° (NW) 3,217 7.1 -10.6°
